• In Hungary
  • List of Countries
  • For 7 days
  • Water Temperature
  • Satellite Maps
  • Weather Map
  • News
  • Weather Widgets
  • user-avatar
    Login

    Hourly Weather Antananarivo

    Today, 13 November, Tuesday

    Time Temperature Precipitation Wind Pressure Humidity
    00:00 +18°C° 0 mm 3 mps 656 mmHg 89%
    01:00 +18°C° 0 mm 3 mps 656 mmHg 89%
    02:00 +17°C° 0 mm 3 mps 656 mmHg 89%
    03:00 +17°C° 0 mm 2 mps 656 mmHg 89%
    04:00 +17°C° 0 mm 3 mps 656 mmHg 88%
    05:00 +17°C° 0 mm 3 mps 656 mmHg 87%
    06:00 +17°C° 0 mm 3 mps 656 mmHg 86%
    07:00 +19°C° 0 mm 3 mps 657 mmHg 80%
    08:00 +20°C° 0 mm 3 mps 657 mmHg 74%
    09:00 +21°C° 0 mm 4 mps 657 mmHg 68%
    10:00 +23°C° 0 mm 4 mps 658 mmHg 63%
    11:00 +25°C° 0 mm 4 mps 658 mmHg 57%
    12:00 +27°C° 0 mm 4 mps 658 mmHg 52%
    13:00 +27°C° 0.1 mm 4 mps 657 mmHg 52%
    14:00 +27°C° 0.1 mm 4 mps 657 mmHg 53%
    15:00 +27°C° 0.1 mm 4 mps 657 mmHg 54%
    16:00 +25°C° 0.3 mm 4 mps 656 mmHg 62%
    17:00 +22°C° 0.3 mm 4 mps 656 mmHg 70%
    18:00 +20°C° 0.3 mm 4 mps 656 mmHg 79%
    19:00 +20°C° 0.1 mm 4 mps 656 mmHg 81%
    20:00 +19°C° 0.1 mm 4 mps 656 mmHg 83%
    21:00 +18°C° 0.1 mm 4 mps 657 mmHg 86%
    22:00 +18°C° 0.1 mm 3 mps 656 mmHg 87%
    23:00 +18°C° 0.1 mm 3 mps 656 mmHg 88%

    Tomorrow, 14 November, Wednesday

    Time Temperature Precipitation Wind Pressure Humidity
    00:00 +18°C° 0.1 mm 3 mps 656 mmHg 89%
    01:00 +17°C° 0 mm 3 mps 656 mmHg 88%
    02:00 +17°C° 0 mm 3 mps 656 mmHg 88%
    03:00 +17°C° 0 mm 2 mps 656 mmHg 88%
    04:00 +17°C° 0 mm 2 mps 656 mmHg 87%
    05:00 +17°C° 0 mm 3 mps 656 mmHg 87%
    06:00 +17°C° 0 mm 3 mps 656 mmHg 86%
    07:00 +19°C° 0 mm 3 mps 657 mmHg 79%
    08:00 +21°C° 0 mm 3 mps 657 mmHg 72%
    09:00 +22°C° 0 mm 3 mps 658 mmHg 64%
    10:00 +24°C° 0 mm 3 mps 658 mmHg 60%
    11:00 +26°C° 0 mm 3 mps 658 mmHg 56%
    12:00 +27°C° 0 mm 3 mps 658 mmHg 51%
    13:00 +27°C° 0.2 mm 3 mps 657 mmHg 53%
    14:00 +26°C° 0.2 mm 3 mps 657 mmHg 55%
    15:00 +26°C° 0.2 mm 3 mps 656 mmHg 56%
    16:00 +24°C° 1.1 mm 3 mps 656 mmHg 64%
    17:00 +22°C° 1.1 mm 3 mps 656 mmHg 73%
    18:00 +20°C° 1.1 mm 4 mps 656 mmHg 81%
    19:00 +20°C° 0.7 mm 4 mps 656 mmHg 83%
    20:00 +19°C° 0.7 mm 3 mps 657 mmHg 85%
    21:00 +19°C° 0.7 mm 3 mps 657 mmHg 87%
    22:00 +19°C° 0.4 mm 3 mps 657 mmHg 87%
    23:00 +18°C° 0.4 mm 3 mps 657 mmHg 88%

    Day after tomorrow, 15 November, Thursday

    Time Temperature Precipitation Wind Pressure Humidity
    00:00 +18°C° 0.4 mm 3 mps 657 mmHg 89%
    01:00 +18°C° 0.1 mm 2 mps 657 mmHg 89%
    02:00 +18°C° 0.1 mm 2 mps 656 mmHg 89%
    03:00 +17°C° 0.1 mm 2 mps 656 mmHg 89%
    04:00 +17°C° 0 mm 2 mps 656 mmHg 89%
    05:00 +17°C° 0 mm 2 mps 657 mmHg 89%
    06:00 +17°C° 0 mm 2 mps 657 mmHg 89%
    07:00 +19°C° 0 mm 2 mps 657 mmHg 84%
    08:00 +20°C° 0 mm 3 mps 658 mmHg 79%
    09:00 +21°C° 0 mm 3 mps 658 mmHg 75%
    10:00 +22°C° 0 mm 3 mps 658 mmHg 70%
    11:00 +24°C° 0 mm 3 mps 658 mmHg 66%
    12:00 +25°C° 0 mm 3 mps 658 mmHg 62%
    13:00 +25°C° 0.1 mm 3 mps 658 mmHg 60%
    14:00 +26°C° 0.1 mm 3 mps 658 mmHg 59%
    15:00 +26°C° 0.1 mm 3 mps 657 mmHg 58%
    16:00 +24°C° 1 mm 3 mps 657 mmHg 65%
    17:00 +22°C° 1 mm 3 mps 657 mmHg 72%
    18:00 +21°C° 1 mm 3 mps 657 mmHg 80%
    19:00 +20°C° 0.3 mm 3 mps 657 mmHg 82%
    20:00 +20°C° 0.3 mm 3 mps 658 mmHg 85%
    21:00 +19°C° 0.3 mm 4 mps 658 mmHg 88%
    22:00 +19°C° 0.1 mm 3 mps 658 mmHg 88%
    23:00 +19°C° 0.1 mm 3 mps 658 mmHg 89%

    16 November, Friday

    Time Temperature Precipitation Wind Pressure Humidity
    00:00 +19°C° 0.1 mm 2 mps 658 mmHg 90%
    01:00 +18°C° 0 mm 2 mps 657 mmHg 90%
    02:00 +18°C° 0 mm 2 mps 657 mmHg 90%
    03:00 +19°C° 0 mm 1 mps 657 mmHg 91%
    04:00 +18°C° 0 mm 2 mps 657 mmHg 90%
    05:00 +18°C° 0 mm 2 mps 657 mmHg 90%
    06:00 +18°C° 0 mm 2 mps 658 mmHg 89%
    07:00 +20°C° 0 mm 2 mps 658 mmHg 82%
    08:00 +21°C° 0 mm 2 mps 659 mmHg 75%
    09:00 +24°C° 0 mm 3 mps 660 mmHg 68%
    10:00 +25°C° 0 mm 3 mps 660 mmHg 62%
    11:00 +26°C° 0 mm 3 mps 659 mmHg 57%
    12:00 +27°C° 0 mm 3 mps 659 mmHg 51%
    13:00 +27°C° 1 mm 2 mps 659 mmHg 53%
    14:00 +27°C° 1 mm 2 mps 658 mmHg 54%
    15:00 +27°C° 1 mm 2 mps 658 mmHg 55%
    16:00 +25°C° 2.7 mm 2 mps 658 mmHg 64%
    17:00 +22°C° 2.7 mm 3 mps 658 mmHg 72%
    18:00 +21°C° 2.7 mm 3 mps 658 mmHg 80%
    19:00 +20°C° 0.4 mm 3 mps 658 mmHg 83%
    20:00 +19°C° 0.4 mm 3 mps 658 mmHg 86%
    21:00 +19°C° 0.4 mm 3 mps 658 mmHg 89%
    22:00 +19°C° 0.9 mm 2 mps 658 mmHg 89%
    23:00 +19°C° 0.9 mm 2 mps 658 mmHg 88%

    17 November, Saturday

    Time Temperature Precipitation Wind Pressure Humidity
    00:00 +19°C° 0.9 mm 2 mps 658 mmHg 88%
    01:00 +19°C° 0 mm 1 mps 658 mmHg 90%
    02:00 +19°C° 0 mm 1 mps 657 mmHg 91%
    03:00 +18°C° 0 mm 1 mps 656 mmHg 93%
    04:00 +18°C° 0 mm 1 mps 657 mmHg 92%
    05:00 +19°C° 0 mm 1 mps 657 mmHg 91%
    06:00 +19°C° 0 mm 1 mps 658 mmHg 90%
    07:00 +21°C° 0 mm 1 mps 658 mmHg 81%
    08:00 +23°C° 0 mm 2 mps 659 mmHg 72%
    09:00 +24°C° 0 mm 2 mps 659 mmHg 63%
    10:00 +26°C° 0 mm 2 mps 659 mmHg 58%
    11:00 +27°C° 0 mm 2 mps 659 mmHg 53%
    12:00 +28°C° 0 mm 2 mps 659 mmHg 49%
    13:00 +28°C° 0.6 mm 2 mps 658 mmHg 51%
    14:00 +27°C° 0.6 mm 1 mps 658 mmHg 54%
    15:00 +27°C° 0.6 mm 1 mps 657 mmHg 56%
    16:00 +25°C° 1.8 mm 1 mps 657 mmHg 64%
    17:00 +24°C° 1.8 mm 2 mps 657 mmHg 72%
    18:00 +21°C° 1.8 mm 2 mps 657 mmHg 79%
    19:00 +21°C° 1 mm 2 mps 657 mmHg 80%
    20:00 +20°C° 1 mm 2 mps 658 mmHg 82%
    21:00 +20°C° 1 mm 2 mps 658 mmHg 83%
    22:00 +21°C° 0.4 mm 1 mps 658 mmHg 85%
    23:00 +20°C° 0.4 mm 1 mps 657 mmHg 87%

    18 November, Sunday

    Time Temperature Precipitation Wind Pressure Humidity
    00:00 +20°C° 0.4 mm 1 mps 657 mmHg 89%
    01:00 +20°C° 0.1 mm 1 mps 657 mmHg 90%
    02:00 +19°C° 0.1 mm 1 mps 656 mmHg 91%
    03:00 +19°C° 0.1 mm 1 mps 656 mmHg 91%
    04:00 +19°C° 0 mm 1 mps 656 mmHg 91%
    05:00 +19°C° 0 mm 1 mps 657 mmHg 90%
    06:00 +17°C° 0 mm 0 mps 657 mmHg 90%
    07:00 +22°C° 0 mm 1 mps 658 mmHg 80%
    08:00 +24°C° 0 mm 1 mps 658 mmHg 70%
    09:00 +26°C° 0 mm 1 mps 659 mmHg 61%
    10:00 +27°C° 0.2 mm 1 mps 659 mmHg 56%
    11:00 +28°C° 0.2 mm 1 mps 659 mmHg 52%
    12:00 +29°C° 0.2 mm 1 mps 658 mmHg 47%
    13:00 +28°C° 1.6 mm 1 mps 658 mmHg 51%
    14:00 +27°C° 1.6 mm 1 mps 657 mmHg 55%
    15:00 +26°C° 1.6 mm 1 mps 656 mmHg 60%
    16:00 +25°C° 2.1 mm 1 mps 656 mmHg 67%
    17:00 +24°C° 2.1 mm 1 mps 656 mmHg 74%
    18:00 +22°C° 2.1 mm 1 mps 656 mmHg 81%
    19:00 +22°C° 0.6 mm 1 mps 656 mmHg 82%
    20:00 +21°C° 0.6 mm 1 mps 657 mmHg 84%
    21:00 +19°C° 0.6 mm 0 mps 657 mmHg 85%
    22:00 +19°C° 0.5 mm 0 mps 656 mmHg 86%
    23:00 +18°C° 0.5 mm 0 mps 656 mmHg 86%
    Show more